CAPE
1415 1749 2001 1953 1705 1716 1730 1700 1758 1971 2211 2272 2235 2403 2496 2543 2508 2539 2679 2853 3095 3141 2539 2337 2310 1963 2087 1722 1669 1741 1857 1990 2176 2287 2246 2086 1727 1871 1959 2210 2053 1626 2056
1568 1746 1992 2022 1860 1806 1783 1787 1853 2076 2336 2400 2285 2267 2449 2491 2465 2473 2503 2589 2753 2768 2229 2192 2194 2131 2349 1657 1546 1575 1669 1655 1898 1944 2044 2046 1881 1876 1786 1999 1911 1678 2092
1581 1714 1953 2019 1971 1927 1895 1944 2053 2291 2458 2434 2407 2282 2343 2532 2542 2418 2303 2395 2782 2793 2370 2534 2583 2534 2338 1701 1228 1337 1500 1584 1741 2008 2036 1411 1614 1765 1895 1940 2095 2209 2272
1597 1677 1829 2041 2079 1880 1790 1893 2079 2414 2444 2513 2481 2456 2341 2432 2564 2509 2357 2281 2585 2919 2454 2427 2463 2419 2097 1323 1009 1025 1164 1374 1488 1758 1511 1489 1479 1653 1481 1794 2064 2049 2101
1417 1580 1796 1891 2014 1954 1780 1824 2037 2234 2232 2287 2423 2541 2495 2427 2495 2572 2336 2392 2769 2738 2431 2365 2477 2394 1493 1055 851 805 857 934 1075 1315 910 1003 1030 1548 1452 1395 2146 2096 2140
1307 1415 1503 1696 1907 2080 2084 2059 2085 2078 2030 2084 2173 2482 2653 2615 2534 2438 2291 2361 2784 2991 2833 2612 2864 2244 1257 774 688 679 644 683 680 322 382 559 833 1208 2023 1703 1871 2205 2026
1303 1253 1251 1358 1550 1836 2231 2381 2394 2312 2153 2140 2204 2336 2486 2695 2702 2472 2187 2265 2537 2968 3330 3230 2802 2249 1402 812 674 636 515 427 406 175 166 453 531 1110 2000 1904 1497 2103 1884
51 25 80 697 1524 1466 1524 1770 2029 2231 2352 2437 2444 2398 2480 2563 2594 2587 2415 2202 2232 2379 2590 2588 2744 2430 2189 1466 924 630 494 368 372 228 163 290 463 804 1746 2240 1752 1584 1505
0 0 0 0 134 1037 1588 1532 1336 1467 1663 1924 2190 2365 2452 2501 2487 2477 2518 2466 2240 2154 2204 2290 2161 2165 2101 2048 1623 1090 697 509 301 121 176 203 610 854 1220 2452 1896 1568 1436
0 0 0 0 0 445 1069 1343 1512 1505 1301 1053 1073 1171 1348 1635 1914 1942 1932 1807 1893 2103 2010 1972 1882 1696 1749 1655 1678 1425 1159 782 397 167 131 128 575 1213 1590 2263 2052 1724 1484
0 0 0 0 0 9 545 707 1396 520 85 49 73 193 1308 1138 1063 1317 528 668 673 535 846 1169 1259 1289 1291 1045 1056 1195 1128 591 326 188 123 151 428 889 1665 1552 1808 1779 1491
0 0 0 0 0 0 30 104 206 62 0 0 0 0 0 2 25 251 208 411 300 197 387 351 372 629 751 897 911 643 631 445 332 270 231 251 570 997 1465 1879 1418 1459 1640
0 0 0 0 0 0 0 1 3 1 0 0 0 0 0 0 0 0 2 62 0 0 3 48 81 221 258 375 925 346 29 33 25 176 385 403 548 1049 1454 2016 2077 1649 1559
0 0 0 0 0 0 0 0 0 0 0 0 0 0 0 0 0 0 2 0 0 1 0 6 0 52 46 186 150 1 2 2 2 21 50 124 331 999 1329 2051 2221 1975 1501
0 0 0 0 0 0 0 0 0 0 0 0 0 0 0 0 0 0 0 0 0 0 0 2 0 3 44 59 0 1 0 26 103 42 78 11 127 438 1117 1509 2467 2286 1691
0 0 0 0 0 0 0 0 0 0 0 0 0 0 0 0 0 0 0 0 0 0 0 0 0 0 5 1 5 0 0 0 0 0 0 3 164 122 461 1550 2260 2518 2189
0 0 0 0 0 0 0 0 0 0 0 0 0 0 0 0 0 0 0 0 0 0 0 0 0 0 0 0 1 0 0 0 0 0 0 0 277 151 32 236 814 2041 1909
0 0 0 0 0 0 0 0 0 0 0 0 0 0 0 0 0 0 0 0 0 0 0 0 0 0 0 0 0 0 0 0 1 1 0 0 248 134 5 32 149 334 410
0 0 0 0 0 0 0 0 0 0 0 0 0 0 0 0 0 0 0 0 0 0 0 0 0 0 0 0 0 0 0 0 0 0 0 6 116 144 144 195 153 248 403
0 0 0 0 0 0 0 0 0 0 0 0 0 0 0 0 0 0 0 0 0 0 0 0 0 0 0 0 0 0 0 0 0 0 0 0 50 114 179 182 205 51 9
0 0 0 0 0 0 0 0 0 0 0 0 0 0 0 0 0 0 0 0 0 0 0 0 0 0 0 0 0 0 0 0 0 15 50 51 52 120 163 236 263 230 80
0 0 0 0 0 0 0 0 0 0 0 0 0 0 0 0 0 0 0 0 0 0 0 0 0 0 0 0 0 1 0 0 0 0 0 19 76 54 110 127 133 151 184
0 0 0 0 0 0 0 0 0 0 0 0 0 0 0 0 0 0 0 0 0 0 0 0 0 0 0 0 0 2 2 0 0 0 0 0 0 0 0 0 0 1 25
0 0 0 0 0 0 0 0 0 0 0 0 0 0 0 0 0 0 0 0 0 0 0 0 0 0 0 0 0 0 0 1 3 0 0 0 0 0 0 0 0 0 0
0 0 0 0 0 0 0 0 0 0 0 0 0 0 0 0 0 0 0 0 0 0 0 0 0 0 0 1 0 3 1 0 0 7 0 0 0 0 0 0 0 0 0
0 0 0 0 0 0 0 0 0 0 0 0 0 0 0 0 0 0 0 0 0 0 0 0 0 0 0 0 0 2 5 8 3 8 7 2 2 0 0 0 0 0 0
CIN
-280 -244 -203 -205 -255 -274 -288 -309 -297 -251 -203 -172 -151 -106 -78 -59 -45 -29 -18 -7 0 0 -3 -8 -10 -20 -5 -18 -35 -30 -12 -4 -1 0 -1 0 0 0 0 0 0 -4 -1
-294 -257 -213 -199 -230 -250 -255 -267 -252 -208 -166 -146 -139 -121 -81 -66 -53 -36 -19 -5 -1 0 -10 -13 -10 -7 0 -32 -55 -40 -27 -19 -3 -2 -1 0 0 0 0 -1 -1 -4 -1
-286 -242 -207 -199 -209 -226 -215 -209 -200 -164 -135 -129 -121 -126 -105 -70 -56 -47 -39 -19 -1 0 -3 0 0 0 -3 -33 -68 -54 -34 -19 -7 -1 -1 -9 -4 0 0 0 0 0 0
-268 -253 -261 -201 -195 -216 -225 -204 -173 -126 -124 -111 -108 -103 -109 -90 -64 -55 -50 -39 -9 0 -4 -3 -2 -3 -12 -60 -81 -75 -49 -24 -18 -3 -11 -13 -9 -12 -15 -5 0 0 0
-285 -253 -230 -230 -200 -204 -212 -190 -171 -145 -138 -128 -112 -96 -88 -78 -65 -49 -61 -43 -7 -2 -8 -4 0 -6 -56 -90 -99 -92 -73 -65 -59 -27 -57 -46 -43 -20 -17 -20 0 0 0
-232 -239 -249 -249 -184 -170 -151 -178 -176 -160 -164 -155 -137 -91 -64 -59 -58 -53 -62 -50 -8 0 0 0 0 -11 -74 -115 -114 -110 -111 -87 -87 -131 -110 -85 -56 -36 -6 -13 -8 0 0
-234 -248 -263 -252 -212 -170 -113 -111 -110 -128 -143 -139 -125 -100 -77 -49 -43 -57 -72 -59 -35 -4 0 0 -2 -8 -49 -100 -117 -128 -125 -113 -113 -164 -164 -119 -113 -58 -7 -10 -19 -1 -2
-291 -327 -295 -425 -222 -229 -214 -171 -128 -109 -105 -100 -90 -79 -62 -52 -48 -45 -53 -56 -44 -28 -7 -10 -5 -7 -7 -44 -85 -115 -123 -117 -112 -147 -166 -155 -147 -82 -13 -5 -16 -16 -19
0 0 0 0 -590 -288 -191 -191 -208 -171 -136 -97 -52 -35 -37 -37 -36 -34 -30 -27 -35 -36 -29 -18 -25 -23 -21 -10 -28 -58 -99 -103 -144 -201 -180 -170 -108 -84 -33 -2 -12 -20 -23
0 0 0 0 0 -391 -234 -182 -139 -131 -169 -211 -197 -175 -131 -69 -13 -8 -4 -17 -6 -7 -12 -24 -33 -48 -49 -46 -50 -63 -48 -69 -111 -174 -194 -185 -107 -32 -14 -3 -10 -17 -25
0 0 0 0 0 -312 -292 -252 -97 -283 -475 -350 -454 -420 -99 -120 -125 -64 -196 -135 -119 -159 -93 -55 -39 -48 -58 -83 -82 -63 -49 -94 -120 -148 -162 -167 -102 -52 -24 -25 -20 -20 -26
0 0 0 0 0 0 -470 -403 -323 -459 0 0 0 0 0 -104 -416 -307 -317 -208 -230 -277 -162 -178 -181 -136 -93 -79 -69 -86 -80 -100 -109 -104 -134 -131 -94 -54 -24 -13 -30 -34 -24
0 0 0 0 0 0 0 0 0 0 0 0 0 0 0 0 0 0 -18 -364 0 -5 -192 -310 -265 -195 -183 -126 -34 -155 -200 -195 -20 -164 -125 -121 -119 -66 -31 -12 -13 -27 -32
0 0 0 0 0 0 0 0 0 0 0 0 0 0 0 0 0 0 0 0 0 0 0 -372 0 -196 -219 -186 -191 0 0 -89 0 -188 -291 -330 -221 -123 -80 -11 -5 -15 -32
0 0 0 0 0 0 0 0 0 0 0 0 0 0 0 0 0 0 0 0 0 0 0 0 0 0 -90 -146 0 0 0 -234 -213 -293 -354 -298 -366 -219 -89 -60 -6 -7 -23
0 0 0 0 0 0 0 0 0 0 0 0 0 0 0 0 0 0 0 0 0 0 0 0 0 0 -2 -6 -48 0 0 0 0 0 0 -149 -223 -202 -146 -73 -44 -9 -9
0 0 0 0 0 0 0 0 0 0 0 0 0 0 0 0 0 0 0 0 0 0 0 0 0 0 0 0 0 0 0 0 0 0 0 0 -98 -148 -178 -191 -158 -40 -16
0 0 0 0 0 0 0 0 0 0 0 0 0 0 0 0 0 0 0 0 0 0 0 0 0 0 0 0 0 0 0 0 0 0 0 0 -80 -92 -81 -189 -191 -215 -177
0 0 0 0 0 0 0 0 0 0 0 0 0 0 0 0 0 0 0 0 0 0 0 0 0 0 0 0 0 0 0 0 0 0 0 -93 -112 -73 -86 -102 -153 -146 -109
0 0 0 0 0 0 0 0 0 0 0 0 0 0 0 0 0 0 0 0 0 0 0 0 0 0 0 0 0 0 0 0 0 0 0 0 -160 -128 -90 -87 -100 -162 -61
0 0 0 0 0 0 0 0 0 0 0 0 0 0 0 0 0 0 0 0 0 0 0 0 0 0 0 0 0 0 0 0 0 -308 -168 -166 -186 -124 -85 -72 -79 -77 -90
0 0 0 0 0 0 0 0 0 0 0 0 0 0 0 0 0 0 0 0 0 0 0 0 0 0 0 0 0 0 0 0 0 0 0 -153 -160 -137 -36 -18 -30 -51 -50
0 0 0 0 0 0 0 0 0 0 0 0 0 0 0 0 0 0 0 0 0 0 0 0 0 0 0 0 0 0 0 0 0 0 0 0 0 0 0 0 0 0 -20
0 0 0 0 0 0 0 0 0 0 0 0 0 0 0 0 0 0 0 0 0 0 0 0 0 0 -1 0 0 0 0 0 0 0 0 0 0 0 0 0 0 0 0
0 0 0 0 0 0 0 0 0 0 0 0 0 0 0 0 0 0 0 0 0 0 0 0 0 0 0 0 0 0 -2 0 0 0 0 0 0 0 0 0 0 0 0
0 0 0 0 0 0 0 0 0 0 0 0 0 0 0 0 0 0 0 0 0 0 0 0 0 0 0 0 0 0 0 0 0 0 0 0 0 0 0 0 0 0 0
Wind_Speed
3 4 4 4 4 5 6 9 10 10 12 13 14 13 13 12 12 11 11 10 9 10 11 10 9 8 7 7 5 5 7 7 7 7 7 10 12 12 11 11 9 8 12
9 5 6 5 5 5 5 7 8 9 10 12 12 12 12 12 11 11 9 9 8 9 10 10 8 7 7 7 5 5 6 6 5 6 7 8 10 12 11 10 7 8 12
9 5 4 5 5 6 5 5 6 7 9 10 10 10 10 11 11 11 10 9 8 8 9 8 8 6 8 6 5 4 5 6 5 6 6 3 3 11 13 10 8 9 11
7 4 6 6 7 6 5 5 5 5 7 8 8 8 8 9 10 10 10 9 9 7 7 7 7 7 7 6 5 4 5 4 4 3 2 4 5 8 11 12 12 12 11
6 4 5 8 8 7 6 5 5 5 5 5 5 6 6 5 6 7 8 8 8 8 7 7 7 8 7 6 6 5 5 5 4 3 2 1 3 6 8 11 12 11 10
6 5 5 7 6 7 6 6 5 5 5 4 4 4 4 4 4 5 6 7 6 7 8 7 7 7 7 7 6 5 4 4 2 1 2 3 5 8 8 12 13 11 10
9 7 7 9 7 6 3 4 4 5 4 3 3 3 4 4 5 5 7 7 8 8 7 7 8 8 8 8 7 7 5 3 2 2 4 4 5 11 12 13 13 13 13
12 10 10 13 11 7 5 2 2 3 2 2 2 2 3 4 6 7 7 7 8 8 8 8 8 9 9 10 9 7 6 5 3 4 5 4 7 13 12 12 12 13 13
13 12 10 10 11 11 8 6 7 7 7 7 7 5 5 5 6 7 8 8 9 10 10 10 9 9 10 11 10 9 8 6 4 4 5 4 7 13 14 14 15 14 14
14 13 12 10 8 7 9 12 8 8 11 13 13 12 9 8 8 8 10 10 10 10 10 11 12 12 11 11 10 9 9 6 5 5 4 4 9 11 17 15 16 16 16
11 11 9 10 10 9 9 10 9 16 16 15 12 15 6 4 5 6 10 12 13 11 8 10 12 12 12 10 10 11 9 3 4 3 3 8 11 13 16 17 16 16 17
10 10 8 8 8 8 7 8 9 9 8 8 9 10 7 8 7 7 7 10 12 12 11 8 9 9 8 4 2 7 2 3 2 3 3 10 13 14 14 16 17 18 17
4 5 5 5 6 7 6 5 5 5 5 6 10 10 8 6 6 5 4 5 6 9 5 6 4 3 4 4 3 6 4 2 1 1 3 9 13 17 16 16 17 19 19
6 5 5 6 6 6 4 6 6 6 5 6 8 9 6 5 7 5 5 7 6 5 6 5 4 5 5 4 6 7 7 4 2 3 7 16 18 19 20 17 20 20 21
8 5 5 6 6 5 7 6 6 6 6 7 7 9 7 7 6 5 5 5 5 5 5 6 6 5 4 2 3 6 8 11 14 10 9 18 24 17 22 20 19 23 23
6 6 5 7 6 6 7 7 6 6 5 6 8 9 9 6 6 6 6 7 7 5 5 5 5 6 5 2 4 4 5 6 7 8 7 7 9 14 16 18 17 23 23
5 6 7 7 6 8 7 7 7 6 6 7 7 10 10 10 8 8 7 8 8 7 9 7 6 5 5 6 5 6 6 8 8 8 8 6 5 6 12 13 8 17 19
8 7 6 5 7 8 7 6 7 6 7 7 7 7 10 10 10 8 7 7 7 7 7 7 7 7 5 5 5 7 6 6 9 9 8 6 6 4 8 9 8 5 4
8 7 7 7 7 7 8 8 8 8 7 6 6 7 10 10 10 7 6 7 8 7 7 7 7 6 6 7 8 8 7 6 6 6 7 9 10 7 5 6 7 10 10
7 7 7 5 6 6 7 7 6 7 6 7 6 7 9 7 10 7 6 7 7 6 7 7 7 7 3 7 9 8 7 7 5 6 7 8 8 7 7 6 6 5 13
7 7 6 6 5 2 2 4 4 4 4 6 7 9 9 8 7 8 5 6 6 7 7 8 6 7 3 10 5 6 5 6 6 5 4 5 6 6 5 7 7 5 7
6 7 7 7 7 5 3 3 4 4 5 4 5 7 8 9 9 8 8 7 7 6 7 8 8 5 3 7 4 3 6 6 5 5 4 4 6 4 4 5 5 5 5
7 7 8 7 6 6 5 4 5 4 3 4 5 5 6 8 8 8 8 7 7 6 6 6 7 7 5 3 6 3 4 4 8 4 5 5 7 6 7 9 11 10 8
6 7 8 7 7 7 7 7 9 5 4 3 3 3 5 7 8 8 9 8 7 5 7 7 6 6 6 6 5 6 6 5 4 8 3 2 5 8 10 9 9 9 9
7 7 7 8 7 7 7 6 8 8 4 3 4 4 6 6 8 8 8 8 8 6 7 7 7 7 6 5 5 6 4 5 6 5 11 7 10 6 8 8 8 8 10
7 7 6 9 7 7 7 7 10 8 6 4 4 4 4 3 5 8 7 7 6 6 7 5 7 8 6 6 6 6 6 4 7 6 8 14 14 8 11 7 8 7 8
Wind_Direction
161 121 139 165 136 112 104 103 103 105 102 104 105 107 106 103 107 111 112 112 113 126 132 132 132 130 115 100 87 71 72 76 86 95 115 130 137 137 137 130 131 136 131
120 129 150 164 139 117 107 104 103 102 102 105 108 111 116 120 121 119 118 121 125 131 134 136 141 140 127 121 120 98 94 97 108 122 132 148 148 150 147 132 136 144 136
110 113 139 140 141 120 103 97 103 105 103 108 116 123 128 131 132 133 135 137 134 138 140 139 141 146 128 133 131 125 118 125 154 154 145 121 144 167 157 149 147 143 145
123 140 128 126 112 112 124 127 113 106 115 122 125 130 135 142 146 147 150 152 150 150 153 149 149 144 137 152 150 152 132 137 180 163 139 167 182 199 164 159 161 161 156
120 120 120 114 113 128 135 134 129 124 121 126 138 143 149 155 159 160 160 166 169 170 176 177 172 161 161 174 174 182 157 161 192 181 194 255 246 225 207 179 170 170 165
59 53 83 98 113 110 120 135 142 143 156 167 168 165 166 182 189 188 189 192 194 199 201 201 184 184 187 192 193 203 202 177 213 245 258 249 239 249 205 177 174 169 165
60 51 46 34 33 54 104 124 135 152 171 190 205 216 206 214 226 226 218 220 217 218 221 220 216 200 198 215 218 221 233 220 216 251 251 219 243 238 197 187 180 177 174
61 46 36 28 24 25 7 354 147 145 170 197 230 258 258 245 247 249 247 243 241 241 243 249 234 225 212 213 224 234 228 218 224 254 263 257 234 234 214 195 190 190 186
46 41 31 23 12 21 5 350 8 6 7 10 3 338 304 282 273 266 260 252 247 241 239 245 256 243 226 211 214 225 237 210 216 235 250 252 247 226 229 198 194 198 198
42 33 21 15 13 23 23 25 42 40 42 38 26 9 349 343 343 333 327 324 313 287 257 246 247 246 243 226 219 215 233 238 237 242 249 254 248 259 242 214 197 198 200
47 37 22 16 10 8 27 24 41 61 49 36 24 14 6 14 13 25 45 38 30 9 329 304 294 274 254 244 224 213 216 234 232 235 262 269 269 269 255 221 206 201 207
48 33 22 22 10 12 30 24 38 47 51 43 29 25 19 19 22 25 27 39 35 18 26 20 12 335 296 259 246 223 183 193 231 245 239 264 274 275 264 230 213 207 205
92 64 37 34 23 31 38 38 46 37 29 38 38 30 14 15 14 9 9 23 33 16 8 359 336 358 313 287 172 120 104 96 153 214 241 258 266 268 261 246 214 213 205
91 62 42 40 52 47 53 53 61 54 39 38 29 27 20 19 15 14 24 16 23 3 355 6 352 350 341 298 157 154 156 152 261 253 268 236 241 246 244 242 227 219 211
93 79 53 56 58 54 65 64 58 51 45 47 39 30 31 19 21 4 13 18 18 1 355 19 357 334 354 347 181 175 188 181 202 207 229 225 223 222 250 240 230 222 217
108 81 58 55 64 78 76 74 71 66 51 50 42 35 33 28 16 16 15 13 8 1 348 18 353 334 335 308 252 240 252 266 242 248 260 274 246 245 254 244 228 214 219
91 86 67 67 62 71 78 80 72 67 60 51 44 36 28 28 23 22 19 10 358 356 4 5 358 346 2 342 298 270 260 248 262 258 253 265 276 247 252 237 215 214 214
98 84 64 52 59 70 82 78 77 60 58 50 40 34 34 34 30 31 26 14 359 6 9 360 357 348 348 338 322 299 278 252 264 248 250 252 250 247 246 241 250 222 254
121 115 87 62 61 72 79 81 77 67 59 50 48 42 37 34 31 36 28 10 1 7 11 3 353 0 333 342 316 296 280 272 235 248 251 250 242 241 252 253 245 226 228
92 85 85 77 78 88 94 92 80 72 62 56 50 44 36 32 30 29 24 15 8 15 9 2 355 346 315 340 310 298 293 279 257 232 241 242 244 236 235 248 255 243 236
87 82 60 70 42 89 72 97 72 53 45 49 50 43 35 28 23 25 19 15 14 20 4 4 347 356 337 353 326 335 300 275 275 268 244 250 252 251 254 249 243 236 229
105 90 69 51 34 35 40 72 95 90 53 54 52 44 35 25 22 27 14 8 7 8 8 3 13 355 340 4 346 298 326 331 358 330 315 301 301 334 312 297 284 265 248
102 94 77 58 46 39 59 79 86 82 53 34 24 33 26 23 14 13 12 7 358 5 360 354 8 5 358 338 346 354 338 320 330 328 7 15 18 17 11 9 4 357 341
114 95 87 68 56 50 40 65 72 82 87 45 42 26 26 23 18 14 8 8 4 4 1 1 2 354 360 356 346 14 346 308 312 315 318 353 32 8 5 345 358 347 342
112 107 104 90 71 61 62 77 87 89 86 72 51 42 33 15 19 14 17 10 10 7 0 356 359 8 11 3 1 351 329 319 274 284 293 316 334 351 334 351 329 337 345
108 108 102 95 80 67 69 73 82 88 82 67 50 38 34 18 15 18 11 15 9 3 351 344 15 17 6 12 5 10 5 348 346 324 310 311 305 313 338 324 335 320 322